Andrews, NC

9:37 PM EST on February 07, 2016 (GMT -0500)
Andrews

Weather History for KRHP - June, 2013

Change the Weather History Date:

Tuesday, June 4, 2013

  Actual Average (KTYS) Record (KTYS)
Temperature  
Mean Temperature 68 °F 72 °F  
Max Temperature 82 °F 83 °F 96 °F (1911)
Min Temperature 53 °F 62 °F 48 °F (1879)
Degree Days  
Heating Degree Days 0 0  
Month to date heating degree days 0  
Since 1 June heating degree days 0  
Since 1 July heating degree days 3633  
Cooling Degree Days 2 8  
Month to date cooling degree days 29  
Year to date cooling degree days 191  
Since 1 June cooling degree days 29  
Growing Degree Days 18 (Base 50)    
Moisture  
Dew Point 58 °F    
Average Humidity 74    
Maximum Humidity 100    
Minimum Humidity 39    
Precipitation  
Precipitation 0.00 in 0.12 in 2.30 in (1920)
Month to date precipitation 0.50  
Year to date precipitation 21.94  
Snow  
Snow 0.00 in 0.00 in - ()
Month to date snowfall 0.0  
Since 1 June snowfall 0.0  
Since 1 July snowfall 6.5  
Snow Depth -    
Sea Level Pressure  
Sea Level Pressure 30.05 in    
Wind  
Wind Speed 1 mph (WNW)    
Max Wind Speed 13 mph    
Max Gust Speed 16 mph    
Visibility 8 miles    
Events Fog    
T = Trace of Precipitation, MM = Missing Value Source: NWS Daily Summary

Daily Weather History Graph

Daily Weather History Graph

Search for Another Location

Airport or City:

Trip Planner

Search our weather history database for the weather conditions in past years. The results will help you decide how hot, cold, wet, or windy it might be!

Date:

Astronomy

Jun. 04, 2013 Rise Set
Actual Time 6:21 AM EDT 8:46 PM EDT
Civil Twilight 5:51 AM EDT 9:16 PM EDT
Nautical Twilight 5:15 AM EDT 9:52 PM EDT
Astronomical Twilight 4:35 AM EDT 10:32 PM EDT
Moon 3:43 AM EDT (6/4) 5:20 PM EDT (6/4)
Length of Visible Light 15h 24m
Length of Day
14h 25m
Waning Crescent, 14% of the Moon is Illuminated
Jun 4
Waning Crescent
Jun 8
New
Jun 16
First Quarter
Jun 23
Full
Jun 30
Last Quarter

Hourly Weather History & Observations

Time (EDT) Temp. Heat Index Dew Point Humidity Pressure Visibility Wind Dir Wind Speed Gust Speed Precip Events Conditions
12:15 AM 60.3 °F - 59.0 °F 96% 30.03 in 7.0 mi Calm Calm - N/A   Unknown
12:35 AM 59.9 °F - 58.1 °F 94% 30.03 in 10.0 mi Calm Calm - N/A   Unknown
12:55 AM 58.6 °F - 57.7 °F 97% 30.03 in 7.0 mi Calm Calm - N/A   Unknown
1:15 AM 59.0 °F - 57.6 °F 95% 30.04 in 10.0 mi Calm Calm - N/A   Unknown
1:35 AM 57.6 °F - 56.7 °F 97% 30.04 in 7.0 mi Calm Calm - N/A   Unknown
1:55 AM 57.7 °F - 56.7 °F 96% 30.03 in 10.0 mi Calm Calm - N/A   Unknown
2:15 AM 57.9 °F - 57.2 °F 97% 30.03 in 7.0 mi Calm Calm - N/A   Unknown
2:35 AM 57.2 °F - 56.3 °F 97% 30.03 in 7.0 mi Calm Calm - N/A   Unknown
2:55 AM 57.2 °F - 56.5 °F 97% 30.03 in 7.0 mi Calm Calm - N/A   Unknown
3:15 AM 57.2 °F - 56.5 °F 97% 30.03 in 7.0 mi Calm Calm - N/A   Unknown
3:35 AM 56.3 °F - 55.2 °F 96% 30.03 in 10.0 mi Calm Calm - N/A   Unknown
3:55 AM 55.8 °F - 54.9 °F 97% 30.03 in 7.0 mi Calm Calm - N/A   Unknown
4:35 AM 55.8 °F - 55.6 °F 99% 30.03 in 0.5 mi Calm Calm - N/A Fog Fog
4:55 AM 55.6 °F - 55.4 °F 99% 30.03 in 3.0 mi Calm Calm - N/A   Mist
5:15 AM 55.4 °F - 55.2 °F 99% 30.04 in 2.0 mi Calm Calm - N/A   Mist
5:35 AM 55.4 °F - 55.4 °F 100% 30.05 in 0.2 mi Calm Calm - N/A Fog Fog
5:55 AM 54.5 °F - 54.0 °F 98% 30.05 in 2.0 mi Calm Calm - N/A   Mist
6:15 AM 54.5 °F - 54.5 °F 100% 30.06 in 0.2 mi Calm Calm - N/A Fog Fog
6:35 AM 53.8 °F - 53.6 °F 99% 30.06 in 0.5 mi Calm Calm - N/A Fog Fog
6:55 AM 54.0 °F - 53.8 °F 99% 30.06 in 0.2 mi Calm Calm - N/A Fog Fog
7:15 AM 54.5 °F - 54.5 °F 100% 30.06 in 3.0 mi Calm Calm - N/A   Mist
7:35 AM 55.6 °F - 55.0 °F 98% 30.06 in 5.0 mi Calm Calm - N/A   Mist
7:55 AM 56.8 °F - 55.9 °F 97% 30.07 in 7.0 mi Calm Calm - N/A   Unknown
8:15 AM 58.6 °F - 57.2 °F 95% 30.07 in 7.0 mi Calm Calm - N/A   Unknown
8:35 AM 59.5 °F - 57.7 °F 94% 30.07 in 7.0 mi Calm Calm - N/A   Unknown
8:55 AM 61.0 °F - 58.8 °F 93% 30.07 in 10.0 mi West 3.5 mph - N/A   Unknown
9:15 AM 63.5 °F - 59.0 °F 85% 30.07 in 10.0 mi Calm Calm - N/A   Unknown
9:35 AM 65.1 °F - 59.5 °F 82% 30.07 in 10.0 mi Calm Calm - N/A   Unknown
9:55 AM 68.0 °F - 60.8 °F 78% 30.07 in 10.0 mi Calm Calm - N/A   Unknown
10:15 AM 69.8 °F - 61.7 °F 75% 30.07 in 10.0 mi Calm Calm - N/A   Unknown
10:35 AM 71.8 °F - 62.2 °F 72% 30.07 in 10.0 mi Calm Calm - N/A   Unknown
10:55 AM 74.3 °F - 59.2 °F 59% 30.07 in 10.0 mi Calm Calm - N/A   Unknown
11:15 AM 75.7 °F - 56.8 °F 52% 30.07 in 10.0 mi WSW 4.6 mph - N/A   Unknown
11:35 AM 76.8 °F - 57.6 °F 51% 30.07 in 10.0 mi West 9.2 mph - N/A   Unknown
11:55 AM 77.0 °F - 57.6 °F 51% 30.07 in 10.0 mi WSW 5.8 mph - N/A   Unknown
12:15 PM 77.7 °F - 58.5 °F 51% 30.07 in 10.0 mi WSW 3.5 mph - N/A   Unknown
12:35 PM 77.7 °F - 59.2 °F 53% 30.07 in 10.0 mi SW 5.8 mph - N/A   Unknown
12:55 PM 78.1 °F - 59.0 °F 52% 30.06 in 10.0 mi SW 5.8 mph - N/A   Unknown
1:15 PM 78.8 °F - 58.6 °F 50% 30.06 in 10.0 mi SSW 6.9 mph - N/A   Unknown
1:35 PM - - - N/A% - - North - - N/A   Unknown
1:55 PM 79.2 °F - 54.9 °F 43% 30.07 in 10.0 mi Calm Calm - N/A   Unknown
2:15 PM 79.9 °F - 54.5 °F 41% 30.06 in 10.0 mi Calm Calm - N/A   Clear
2:35 PM 80.8 °F 80.4 °F 54.0 °F 39% 30.06 in 10.0 mi West 3.5 mph - N/A   Clear
2:55 PM 81.5 °F 81.0 °F 54.9 °F 40% 30.05 in 10.0 mi West 12.7 mph 16.1 mph N/A   Unknown
3:15 PM 80.8 °F 80.5 °F 54.3 °F 40% 30.05 in 10.0 mi NW 3.5 mph - N/A   Unknown
3:35 PM 81.7 °F 81.3 °F 55.6 °F 41% 30.04 in 10.0 mi WNW 6.9 mph - N/A   Unknown
3:55 PM 81.5 °F 81.1 °F 55.8 °F 41% 30.04 in 10.0 mi Calm Calm - N/A   Unknown
4:15 PM 81.5 °F 81.3 °F 56.7 °F 42% 30.04 in 10.0 mi North 3.5 mph - N/A   Unknown
4:35 PM 82.2 °F 81.9 °F 56.8 °F 42% 30.03 in 10.0 mi West 5.8 mph - N/A   Unknown
4:55 PM 82.0 °F 81.8 °F 57.2 °F 43% 30.03 in 10.0 mi WNW 6.9 mph - N/A   Unknown
5:15 PM 82.2 °F 82.0 °F 57.4 °F 43% 30.03 in 10.0 mi West 6.9 mph - N/A   Unknown
5:35 PM 81.9 °F 81.8 °F 57.7 °F 44% 30.03 in 10.0 mi WNW 4.6 mph - N/A   Unknown
5:55 PM 82.0 °F 82.1 °F 58.6 °F 45% 30.02 in 10.0 mi SW 4.6 mph - N/A   Unknown
6:15 PM 81.5 °F 81.5 °F 57.7 °F 44% 30.03 in 10.0 mi West 5.8 mph - N/A   Unknown
6:35 PM 81.3 °F 81.3 °F 57.6 °F 44% 30.02 in 10.0 mi West 4.6 mph - N/A   Unknown
6:55 PM 80.8 °F 81.1 °F 58.3 °F 46% 30.01 in 10.0 mi West 3.5 mph - N/A   Unknown
7:15 PM 80.1 °F 80.9 °F 59.7 °F 50% 30.01 in 10.0 mi Calm Calm - N/A   Unknown
7:35 PM 78.8 °F - 61.9 °F 56% 30.02 in 10.0 mi Calm Calm - N/A   Unknown
7:55 PM 76.5 °F - 62.2 °F 61% 30.02 in 10.0 mi NNW 4.6 mph - N/A   Unknown
8:15 PM 73.8 °F - 61.7 °F 66% 30.03 in 10.0 mi NW 4.6 mph - N/A   Unknown
8:35 PM 71.6 °F - 61.3 °F 70% 30.03 in 10.0 mi NNW 3.5 mph - N/A   Unknown
8:55 PM 69.6 °F - 61.5 °F 75% 30.04 in 10.0 mi North 3.5 mph - N/A   Unknown
9:15 PM 68.2 °F - 60.8 °F 77% 30.05 in 10.0 mi Calm Calm - N/A   Unknown
9:35 PM 67.5 °F - 60.8 °F 79% 30.06 in 10.0 mi Calm Calm - N/A   Unknown
9:55 PM 67.1 °F - 62.2 °F 84% 30.06 in 10.0 mi Calm Calm - N/A   Unknown
10:15 PM 66.4 °F - 61.9 °F 85% 30.07 in 10.0 mi Calm Calm - N/A   Unknown
10:35 PM 66.2 °F - 62.1 °F 86% 30.08 in 10.0 mi Calm Calm - N/A   Unknown
10:55 PM 65.8 °F - 61.0 °F 84% 30.08 in 10.0 mi North 3.5 mph - N/A   Unknown
11:15 PM 65.1 °F - 60.4 °F 85% 30.08 in 10.0 mi North 3.5 mph - N/A   Unknown
11:35 PM 64.2 °F - 60.4 °F 87% 30.08 in 10.0 mi Calm Calm - N/A   Unknown
11:55 PM 63.5 °F - 60.6 °F 90% 30.08 in 10.0 mi Calm Calm - N/A   Unknown